This is the latest recevied weather packets stored in our database for station/object KJ4EBE. If no packets are shown the sender has not sent any weather packets the latest 10 day(s).
| Time | Temp. | Humidity | Pressure | Rain* | Wind** | Luminosity | Snow |
|---|---|---|---|---|---|---|---|
| 1777834935 | 26.67° C | 35% | 1019.9 hPa | 0 mm | - | 767 W/m² | - |
| 1777834633 | 26.11° C | 32% | 1020 hPa | 0 mm | - | 764 W/m² | - |
| 1777834328 | 26.11° C | 32% | 1020 hPa | 0 mm | - | 761 W/m² | - |
| 1777834023 | 26.11° C | 34% | 1020.4 hPa | 0 mm | - | 755 W/m² | - |
| 1777833720 | 26.11° C | 35% | 1020.5 hPa | 0 mm | - | 776 W/m² | - |
| 1777833416 | 26.11° C | 35% | 1020.3 hPa | 0 mm | - | 785 W/m² | - |
| 1777833114 | 26.11° C | 38% | 1020.3 hPa | 0 mm | - | 787 W/m² | - |
| 1777832811 | 26.11° C | 36% | 1020.4 hPa | 0 mm | - | 74 W/m² | - |
| 1777832510 | 26.11° C | 36% | 1020.9 hPa | 0 mm | - | 74 W/m² | - |
| 1777832206 | 25.56° C | 33% | 1020.8 hPa | 0 mm | - | 795 W/m² | - |
| 1777831903 | 25.56° C | 34% | 1020.8 hPa | 0 mm | - | 796 W/m² | - |
| 1777831600 | 26.11° C | 36% | 1021.1 hPa | 0 mm | - | 799 W/m² | - |
| 1777831298 | 26.11° C | 33% | 1021 hPa | 0 mm | - | 619 W/m² | - |
| 1777830995 | 26.11° C | 35% | 1021.2 hPa | 0 mm | - | 801 W/m² | - |
| 1777830692 | 26.67° C | 35% | 1021.2 hPa | 0 mm | - | 801 W/m² | - |
| 1777830388 | 26.11° C | 33% | 1021.3 hPa | 0 mm | - | 800 W/m² | - |
| 1777830086 | 25.56° C | 35% | 1021.5 hPa | 0 mm | - | 800 W/m² | - |
| 1777829780 | 25.56° C | 37% | 1021.5 hPa | 0 mm | - | 797 W/m² | - |
| 1777829477 | 25.56° C | 35% | 1021.5 hPa | 0 mm | - | 794 W/m² | - |
| 1777829174 | 25° C | 34% | 1021.6 hPa | 0 mm | - | 792 W/m² | - |
| 1777828872 | 25.56° C | 36% | 1021.5 hPa | 0 mm | - | 789 W/m² | - |
| 1777828568 | 25° C | 32% | 1021.7 hPa | 0 mm | - | 789 W/m² | - |
| 1777828266 | 24.44° C | 36% | 1021.7 hPa | 0 mm | - | 785 W/m² | - |
| 1777827962 | 24.44° C | 38% | 1021.9 hPa | 0 mm | - | 784 W/m² | - |
| 1777827659 | 24.44° C | 40% | 1021.9 hPa | 0 mm | - | 779 W/m² | - |
* Rain latest hour (hover to see other rain measurements)
** Current wind speed in m/s (hover to see current wind gust speed)